Location: Cisewo
(53.3833°N, 14.9000°E)
Time: 13:14:16
(UTC+00:00)

USA 229 - Pass Details

Date: 30 July 2021
Orbit: 956 x 1256 km, 63.5° (Epoch: 08 August)

Event Time Altitude Azimuth Distance (km) Brightness Sun altitude
Rises 23:20:28 0° 311° (NW) 3,984 7.2 -18.3°
Reaches altitude 10° 23:23:37 10° 298° (WNW) 3,069 6.4 -18.3°
Maximum altitude 23:29:19 25° 248° (WSW) 2,220 5.1 -18.2°
Enters shadow 23:31:59 20° 219° (SW) 2,463 5.1 -18.1°
